This demonstration page uses our WeatherBlox Daily Observations layout. Learn more.

Left ArrowRight Arrow

38.20091, -84.87328

Hourly Observations for September 14, 2016

Temp ( °F °C ) Dew Point ( °F °C ) Humidity (%) Winds ( mph kmh ) Pressure ( in mb ) Visibility ( mi km ) Precip ( " mm )
12:53 am 00:53 Clear 63 17.2 59 15 87 87 NNW 5 7 30.12 1020 10 16 0.00 0.00
1:53 am 01:53 Clear 62 16.7 59 15 90 90 S 5 7 30.11 1020 10 16 0.00 0.00
2:53 am 02:53 Clear 62 16.7 58 14.4 86 86 VRB 6 9 30.12 1020 10 16 0.00 0.00
3:53 am 03:53 Clear 62 16.7 58 14.4 86 86 Calm 30.13 1020 10 16 0.00 0.00
4:53 am 04:53 Clear 60 15.6 57 13.9 90 90 N 3 6 30.13 1020 10 16 0.00 0.00
5:53 am 05:53 Clear 59 15 56 13.3 90 90 Calm 30.14 1021 10 16 0.00 0.00
6:53 am 06:53 Clear 59 15 56 13.3 90 90 Calm 30.15 1021 10 16 0.00 0.00
7:53 am 07:53 Sunny 59 15 56 13.3 90 90 N 3 6 30.17 1022 10 16 0.00 0.00
8:53 am 08:53 Sunny 67 19.4 60 15.6 79 79 Calm 30.17 1022 10 16 0.00 0.00
9:53 am 09:53 Sunny 74 23.3 61 16.1 64 64 Calm 30.18 1022 10 16 0.00 0.00
10:53 am 10:53 Sunny 81 27.2 60 15.6 49 49 Calm 30.19 1022 10 16 0.00 0.00
11:53 am 11:53 Sunny 85 29.4 59 15 42 42 Calm 30.18 1022 10 16 0.00 0.00
12:53 pm 12:53 Sunny 85 29.4 60 15.6 43 43 NNW 5 7 30.17 1022 10 16 0.00 0.00
1:53 pm 13:53 Sunny 87 30.6 61 16.1 42 42 VRB 3 6 30.15 1021 10 16 0.00 0.00
2:53 pm 14:53 Sunny 88 31.1 62 16.7 42 42 Calm 30.12 1020 10 16 0.00 0.00
3:53 pm 15:53 Sunny 89 31.7 62 16.7 41 41 Calm 30.10 1019 10 16 0.00 0.00
4:53 pm 16:53 Sunny 89 31.7 61 16.1 39 39 Calm 30.09 1019 10 16 0.00 0.00
5:53 pm 17:53 Sunny 87 30.6 62 16.7 43 43 NNW 3 6 30.09 1019 10 16 0.00 0.00
6:53 pm 18:53 Mostly Cloudy 86 30 63 17.2 46 46 Calm 30.09 1019 10 16 0.00 0.00
7:53 pm 19:53 Clear 78 25.6 67 19.4 69 69 NNW 3 6 30.09 1019 10 16 0.00 0.00
8:53 pm 20:53 Clear 77 25 66 18.9 69 69 Calm 30.10 1019 10 16 0.00 0.00
9:53 pm 21:53 Clear 79 26.1 65 18.3 62 62 NNE 5 7 30.11 1020 10 16 0.00 0.00
10:53 pm 22:53 Clear 77 25 66 18.9 69 69 NE 3 6 30.12 1020 10 16 0.00 0.00
11:53 pm 23:53 Clear 75 23.9 66 18.9 74 74 N 3 6 30.13 1020 10 16 0.00 0.00

Powered by AerisWeather